www.pogodaiklimat.ru

Погода и климат >> Архив погоды >> Россия >> Волгоградская область >> Елань


ПОГОДА в Елани

  • Прогноз погоды в Елани
  • Монитор погоды в Елани

АРХИВ ПОГОДЫ в Елани

Время (UTC), дата Ветер
(напр.,м/с)
 
Видим.   Явления Облачность Т
(С)
Тd
(С)
f
(%)
Тe
(С)
Тes
(С)
Комфортность P
(гПа)
Po
(гПа)
Тmin
(С)
Tmax
(С)
R
(мм)
R24
(мм)
S
(см)
03 19.04 СВ 1 20 км 5/0
[Ac trans Ci fib]
-2.0 -8.8 60 -4 -3 1029.2 1012.1 -3.1
06 19.04 В 3 20 км 6/0
[Ci fib]
+6.5 -13.5 22 +4 +10 1029.4 1012.8
09 19.04 В 3 20 км 8/0
[Ci fib]
+9.2 -13.1 19 +8 +17 1028.8 1012.4
12 19.04 С 2 20 км 4/0
[Ci fib]
+10.6 -13.4 17 +10 +18 1027.8 1011.4
15 19.04 В 2 20 км ясно +10.2 -13.8 17 +10 +10 1027.1 1010.7 +10.9
18 19.04 штиль 0 20 км ясно +4.8 -14.0 24 +5 +5 1028.0 1011.3
21 19.04 штиль 0 20 км ясно -1.1 -9.7 52 -2 -2 1028.2 1011.1
00 20.04 штиль 0 20 км ясно -1.8 -8.5 60 -2 -2 1028.1 1011.0
03 20.04 штиль 0 20 км ясно -2.8 -8.0 67 -4 -3 1027.6 1010.5 -3.6
06 20.04 СЗ 1 20 км ясно +10.1 -9.6 24 +10 +20 опасность
простуды
1026.9 1010.5
09 20.04 З 1 20 км ясно +13.0 -12.5 16 +14 +30 опасность
простуды
1026.0 1009.8
12 20.04 С 2 20 км 1/1 1000 м
[Cu hum]
+14.1 -11.1 16 +14 +22 1025.0 1008.9
15 20.04 С 1 20 км 6/6 600 м
[Cu med, cong]
+13.0 -10.7 18 +14 +14 1024.8 1008.6 +14.6
18 20.04 штиль 0 20 км 4/0
[Ac trans]
+6.6 -5.1 43 +6 +6 1025.9 1009.4
21 20.04 штиль 0 20 км 6/0
[Ac trans]
+4.6 -9.9 34 +5 +5 1026.4 1009.7
00 21.04 штиль 0 20 км ясно +0.7 -5.1 65 0 0 1026.2 1009.3
03 21.04 штиль 0 20 км 8/0
[Ac trans]
0.0 -5.9 64 -1 -0 1026.9 1009.9 -1.5
06 21.04 штиль 0 20 км 3/0
[Ci fib]
+11.1 -6.6 28 +11 +21 опасность
простуды
1026.6 1010.3
09 21.04 штиль 0 20 км 8/5 600 м
[Cu med, cong Ac cast]
+15.5 -10.3 16 +16 +21 1025.8 1009.8
12 21.04 С 1 20 км 10/6 600 м
[Cu med, cong Ci fib]
+16.6 -10.0 15 +18 +21 1024.7 1008.7
15 21.04 В 1 20 км 10/0
[Ac As Ci fib]
+14.9 -9.0 18 +16 +16 1024.5 1008.4 +16.7
18 21.04 штиль 0 20 км 6/0
[Ac As]
+8.0 -8.3 31 +8 +8 1025.5 1009.0
21 21.04 штиль 0 20 км 4/0
[Ci fib]
+3.9 -4.8 53 +4 +4 1026.2 1009.5
00 22.04 штиль 0 20 км 4/0
[Ci fib]
+1.1 -6.1 59 +1 +1 1026.4 1009.5
03 22.04 штиль 0 20 км 8/0
[Ci fib]
+1.5 -3.5 69 +1 +1 1026.8 1009.9 -0.2
06 22.04 штиль 0 20 км 5/0
[Ci fib]
+12.4 -3.1 34 +12 +22 1026.6 1010.3
09 22.04 С 1 20 км ясно +17.2 -7.9 17 +18 +35 опасность
простуды
1025.6 1009.7
12 22.04 С 1 20 км ясно +18.3 -8.2 16 +19 +29 1024.5 1008.6
15 22.04 СВ 2 20 км 6/0
[Ci fib]
+17.2 -7.5 18 +18 +18 1024.1 1008.2 +18.4
18 22.04 штиль 0 20 км ясно +10.2 -4.0 37 +10 +10 1025.2 1008.9
21 22.04 штиль 0 20 км ясно +5.3 -2.2 58 +5 +5 1025.9 1009.3
00 23.04 штиль 0 20 км ясно +2.6 -2.2 71 +2 +2 1026.1 1009.3
03 23.04 штиль 0 20 км 8/3 600 м
[Cb cap Ac cast]
+2.6 -1.9 72 +2 +2 1026.3 1009.5 +0.2
06 23.04 СЗ 1 20 км 8/8 300 м
[Cb cap]
+15.2 -1.6 31 +16 +18 1025.4 1009.4
09 23.04 СЗ 3 20 км 6/6 600 м
[Cu med, cong]
+19.0 -4.3 20 +19 +24 1024.6 1008.7
12 23.04 С 3 20 км 8/8 300 м
[Cb cap]
+19.1 -3.0 22 +19 +21 1023.6 1007.8
15 23.04 СЗ 3 20 км 10/3 1000 м
[Cb cap Ac As Ci fib]
+17.4 -3.1 24 +17 +18 1022.7 1006.8 +19.5
18 23.04 С 1 20 км 10/6 600 м
[Cb cap Ac As]
+14.0 -1.8 34 +15 +15 1023.0 1006.9
21 23.04 С 1 20 км 10/0
[Ac und]
+12.8 -1.3 38 +13 +13 1023.1 1007.0
00 24.04 С 2 20 км 6/0
[Ac trans]
+9.6 -0.4 50 +8 +8 1023.5 1007.2
03 24.04 штиль 0 20 км 8/0
[Ac trans Ci fib]
+6.3 -0.5 62 +6 +6 1024.4 1007.9 +4.3
06 24.04 СЗ 1 20 км 3/0
[Ci fib]
+16.6 +0.5 34 +18 +27 1024.3 1008.3
09 24.04 С 3 20 км 3/0
[Ac trans Ci fib]
+19.7 -1.2 24 +20 +30 1023.3 1007.5
12 24.04 СЗ 3 20 км ясно +21.5 -1.2 22 +21 +28 комфорт 1022.5 1006.8
15 24.04 СЗ 2 20 км ясно +20.8 -1.6 22 +21 +22 комфорт 1021.5 1005.8 +21.6
18 24.04 СЗ 2 20 км ясно +14.8 -1.3 33 +15 +15 1022.4 1006.4
21 24.04 З 1 20 км ясно +9.5 -0.3 50 +9 +9 1022.9 1006.5
00 25.04 СЗ 2 20 км 4/0
[Ac trans]
+8.0 +0.7 60 +6 +6 1022.8 1006.4
03 25.04 штиль 0 20 км 3/0
[Ac trans]
+8.2 +1.2 61 +8 +9 1023.3 1006.9 +6.1
06 25.04 штиль 0 20 км ясно +20.2 +2.3 30 +20 +32 1022.8 1007.1
09 25.04 З 5 20 км 1/1 1000 м
[Cu hum]
+24.0 +1.3 22 +23 +30 комфорт 1021.8 1006.3
12 25.04 СЗ 4
{12}
20 км 4/4 1000 м
[Cu hum]
+25.3 +0.2 19 +24 +27 комфорт 1020.2 1004.8
15 25.04 З 3 20 км ясно +23.5 +2.0 24 +23 +24 комфорт 1019.2 1003.7 +25.5
18 25.04 З 1 20 км ясно +15.1 +2.2 42 +16 +16 1019.7 1003.7
21 25.04 штиль 0 20 км ясно +12.6 +2.1 49 +12 +12 1019.3 1003.2
00 26.04 З 1 20 км ясно +10.5 +2.7 58 +10 +10 1019.1 1002.9

 

Местоположение метеостанции Елань (Волгоградская область, Россия): широта 50.95 долгота 43.73 высота над уровнем моря 133 м.

В архиве по умолчанию представлена погода в Елани за последнюю неделю. Архивные данные за месяц целиком и за предыдущие месяцы, начиная с января 2011 года, Вы можете получить, выбрав интересующий диапазон дат из раскрывающегося списка и нажав кнопку "Ввод!".


*Определитесь, кто Вы:
робот инопланетянин человек

Внимание! Время в таблицах - всемирное. Для получения местного времени необходимо прибавить поправку, которая равна 3 ч.

Смотрите также архив погоды в соседних городах и на ближайших метеорологических станциях:

Погода в Рудне (Волгоградская область, Россия) (60 км)
Погода в Даниловке (Волгоградская область, Россия) (70 км)
Погода в Балашове (Саратовская область, Россия) (78 км)
Погода в Калининске (Саратовская область, Россия) (80 км)
Погода в Новоаннинском (Волгоградская область, Россия) (87 км)
Погода в Михайловке (Волгоградская область, Россия) (102 км)
Погода в Росташах (Саратовская область, Россия) (103 км)
Погода в Сплавнухе (Саратовская область, Россия) (116 км)
Погода в Урюпинске (Волгоградская область, Россия) (123 км)
Погода в Борисоглебске (Воронежская область, Россия) (124 км)

Пояснения к столбцам:

Ветер - указаны скорость ветра в м/с - средняя за 10 мин, порывы в срок и между сроками (в фигурных скобках) и направление, откуда дует ветер: С - северный, СВ - северо-восточный, В - восточный, ЮВ - юго-восточный, Ю - южный, ЮЗ - юго-западный, З - западный, СЗ - северо-западный.
Видимость - горизонтальная дальность видимости в метрах или километрах. При видимости от 1 до 10 км при отсутствии осадков обычно наблюдается дымка, при ухудшении видимости до 1 км и менее - туман. В сухую погоду видимость может ухудшаться дымом, пылью или мглою.
Явления - указаны атмосферные явления, наблюдавшиеся в срок или в последний час перед сроком; фигурными скобками обозначены явления, наблюдавшиеся между сроками (за 1-3 часа до срока); квадратными скобками обозначены град или гололедные отложения с указанием их диаметра в мм.
Облачность - указаны через наклонную черту общая и нижняя облачность в баллах и высота нижней границы облаков в метрах; квадратными скобками обозначены формы облаков: Ci - перистые, Cs - перисто-слоистые, Cc - перисто-кучевые, Ac - высококучевые, As - высокослоистые, Sc - слоисто-кучевые, Ns - слоисто-дождевые, Cu - кучевые, Cb - кучево-дождевые. Подробнее классификацию облаков см. в Атласе облаков (PDF).
T - Температура воздуха - температура, измеренная на высоте 2 м над землей.
Td - Температура точки росы - температура, при понижении до которой содержащийся в воздухе водяной пар достигнет насыщения.
f - Относительная влажность воздуха - влажноcть воздуха, измеренная на высоте 2 м над землей.
Te - Эффективная температура - температура, которую ощущает одетый по сезону человек в тени. Характеристика душности погоды. При расчете учитывается влияние влажности воздуха и скорости ветра на теплоощущения человека.
Tes - Эффективная температура на солнце - температура, которую ощущает человек, с поправкой на солнечный нагрев. Характеристика знойности погоды. Зависит от высоты солнца над горизонтом, облачности и скорости ветра. Ночью, в пасмурную погоду, а также при ветре 12 м/с и более поправка равна нулю.
P - Атмосферное давление - приведенное к уровню моря атмосферное давление.
Po - Атмосферное давление - измеренное на уровне метеостанции атмосферное давление.
Tmin - Минимальная температура - минимум температуры воздуха на высоте 2 м над землей.
Tmax - Максимальная температура - максимум температуры воздуха на высоте 2 м над землей.
R - Количество осадков - Количество выпавших осадков за период времени, мм. При наведении курсора мыши на число - период времени, за который выпало указанное количество осадков.
R24 - Количество осадков - Количество выпавших осадков за 24 часа, мм.
S - Снежный покров - Высота снежного покрова, см. При наведении курсора мыши на число - состояние снежного покрова и степень покрытия местности в баллах.